sat.trackr.live / text

‹ back to catalog

ONEWEB-0314

NORAD 49100 · 2021-075AB

PAYLOAD ACTIVE UNKNOWN

§ Identity

Operator
Country
UK
Launch date
2021-08-21
Launch site
TYMSC
Launch vehicle
Mass (kg)
RCS (m²)

Purposes: comms

External: N2YO · Heavens-Above · Gunter

§ Orbital elements

Epoch: 2026-05-25T03:35:22.553376Z

Period
109.29 min
Inclination
87.9162°
Eccentricity
0.0001902
Mean motion
13.17649533 rev/d
Perigee alt
1,192.3 km
Apogee alt
1,195.2 km
Semi-major
7,571.8 km
B*
9.4983e-5
RAAN
10.4315°
Arg perigee
96.3885°
Mean anomaly
263.7463°
Rev number
23,053

§ Raw data

ONEWEB-03141 49100U 21075AB  26145.14956659  .00000050  00000+0  94983-4 0  99932 49100  87.9162  10.4315 0001902  96.3885 263.7463 13.17649533230530

JSON: /api/v1/satellites/49100 · /tle

For live sub-satellite position, see the globe view (requires WebGL).

§ Visibility from observer

Set your observer location to see the next 7 days of passes ≥ 10°. The values pass through the URL so the page stays shareable.

No JS? Fill the form by hand. The geolocation button needs JavaScript.